Location: Kellogg
(38.0159°N, 90.0546°W)
Time: 15:47:01
(UTC+00:00)

Transit 2A - Pass Details

Date: 20 September 2024
Orbit: 590 x 960 km, 66.7° (Epoch: 07 October)

Event Time Altitude Azimuth Distance (km) Brightness Sun altitude
Rises 07:00:01 0° 341° (NNW) 3,632 9.9 -48.2°
Reaches altitude 10° 07:03:17 10° 357° (N) 2,654 9.2 -47.9°
Enters shadow 07:03:19 10° 357° (N) 2,648 9.2 -47.9°
Maximum altitude 07:07:57 22° 46° (NE) 1,886 - -47.5°
Drops below altitude 10° 07:12:22 10° 95° (E) 2,503 - -47.1°
Sets 07:15:20 0° 111° (ESE) 3,371 - -46.8°
